Погода в ИЦ Сколково

Россия / Московская область     55°41′30″N   37°20′55″E
темп.,
°C
ветер,
м/с
пор.,
м/с
влажн.,
%
обл.,
%
осадки,
мм/ч
давл.,
гПа
погр.,
м
1 августа, вс
вс100:00+17зюз266851 0.0 1009182
03:00+16зюз2571100 0.0 1010136
06:00+16юз2569100 0.0 1010138
09:00+22ююз3556100 0.0 1010444
12:00+23з5658100 0.1 10111003
15:00+19ю1285100 0.9 1011196
18:00+22зюз2874100 0.1 1009491
21:00+20ююз2386100 0.1 101073
2 августа, пн
пн200:00+18ююз2290100 0.0 101050
03:00+18юз1190100 0.0 101015
06:00+18ю249099 0.2 1009143
09:00+23ююв357299 0.6 1008503
12:00+28ю4850100 0.0 10061299
15:00+30ю61142100 0.0 10042249
18:00+28ююз5951100 0.0 10021010
21:00+23зюз3780100 1.8 1002230
3 августа, вт
вт300:00+19ююз41191100 5.3 1003622
03:00+17юз41289100 5.3 1003577
06:00+17юз3694100 0.4 1005364
09:00+17зсз358994 0.7 1006531
12:00+18з4573100 0.1 1008755
15:00+21зсз465993 0.3 10081372
18:00+20з4667100 0.6 1009939
21:00+17зюз388561 1.0 1010283
4 августа, ср
ср400:00+15з398454 0.0 1011258
03:00+14з36882 0.0 1013182
06:00+14зсз37881 0.0 1013221
09:00+18сз34660 0.0 1015672
12:00+22ссз234849 0.1 10151664
15:00+21з2251100 0.3 10151085
18:00+21ссз2252100 0.1 1016873
21:00+18с11585 0.2 101714
5 августа, чт
чт500:00+16сз116236 0.0 101714
03:00+15с126775 0.0 101834
06:00+15ссв12659 0.0 101853
09:00+20вюв1245100 0.0 1018535
12:00+23юв123878 0.0 10171556
15:00+25ююв123451 0.0 10162463
18:00+23юз1241100 0.0 1016683
21:00+20з235695 0.0 1016131